Louisville, KY

3:11 PM EST on January 20, 2017 (GMT -0500)
Bowman

Weather History for KLOU - May, 2014

Change the Weather History Date:

Wednesday, May 14, 2014

  Actual Average Record
Temperature  
Mean Temperature 67 °F 66 °F  
Max Temperature 72 °F 76 °F 91 °F (1998)
Min Temperature 62 °F 56 °F 42 °F (1971)
Degree Days  
Heating Degree Days 0 3  
Month to date heating degree days 23 49  
Since 1 July heating degree days 4664 4240  
Cooling Degree Days 2 3  
Month to date cooling degree days 90 31  
Year to date cooling degree days 124 65  
Growing Degree Days 17 (Base 50)    
Moisture  
Dew Point 63 °F    
Average Humidity 86    
Maximum Humidity 93    
Minimum Humidity 78    
Precipitation  
Precipitation 1.21 in 0.17 in 1.51 in (1967)
Month to date precipitation 3.19 2.49  
Year to date precipitation 18.60 17.29  
Sea Level Pressure  
Sea Level Pressure 29.98 in    
Wind  
Wind Speed 6 mph (North)    
Max Wind Speed 16 mph    
Max Gust Speed 26 mph    
Visibility 6 miles    
Events Rain , Thunderstorm    
T = Trace of Precipitation, MM = Missing Value Source: NWS Daily Summary

Daily Weather History Graph

Daily Weather History Graph

Search for Another Location

Airport or City:

Trip Planner

Search our weather history database for the weather conditions in past years. The results will help you decide how hot, cold, wet, or windy it might be!

Date:

Astronomy

May. 14, 2014 Rise Set
Actual Time 6:32 AM EDT 8:45 PM EDT
Civil Twilight 6:03 AM EDT 9:15 PM EDT
Nautical Twilight 5:26 AM EDT 9:51 PM EDT
Astronomical Twilight 4:47 AM EDT 10:31 PM EDT
Moon 8:51 PM EDT (5/14) 6:30 AM EDT (5/14)
Length of Visible Light 15h 12m
Length of Day
14h 13m
Full, 100% of the Moon is Illuminated
May 14
Full
May 14
Full
May 21
Last Quarter
May 28
New
Jun 5
First Quarter

Hourly Weather History & Observations

Time (EDT) Temp. Dew Point Humidity Pressure Visibility Wind Dir Wind Speed Gust Speed Precip Events Conditions
12:06 AM 70.0 °F 64.9 °F 84% 30.09 in 10.0 mi North 8.1 mph - N/A   Overcast
12:53 AM 70.0 °F 64.9 °F 84% 30.09 in 10.0 mi North 4.6 mph - N/A   Overcast
1:53 AM 69.1 °F 64.0 °F 84% 30.07 in 10.0 mi North 5.8 mph - N/A   Mostly Cloudy
2:53 AM 69.1 °F 64.0 °F 84% 30.07 in 10.0 mi North 5.8 mph - N/A   Overcast
3:53 AM 69.1 °F 63.0 °F 81% 30.06 in 10.0 mi NNW 5.8 mph - N/A   Overcast
4:17 AM 68.0 °F 63.0 °F 84% 30.07 in 10.0 mi NNW 6.9 mph - N/A   Overcast
4:28 AM 68.0 °F 62.1 °F 81% 30.07 in 10.0 mi North 8.1 mph - N/A   Overcast
4:53 AM 66.9 °F 62.1 °F 84% 30.06 in 10.0 mi North 6.9 mph - N/A   Overcast
5:23 AM 66.0 °F 62.1 °F 87% 30.07 in 5.0 mi NNW 8.1 mph - N/A   Overcast
5:43 AM 64.9 °F 61.0 °F 87% 30.07 in 3.0 mi NNW 10.4 mph - N/A   Overcast
5:53 AM 64.9 °F 61.0 °F 87% 30.05 in 3.0 mi North 11.5 mph - N/A   Overcast
6:53 AM 63.0 °F 60.1 °F 90% 30.06 in 5.0 mi North 8.1 mph - N/A   Overcast
7:39 AM 63.0 °F 59.0 °F 87% 30.10 in 5.0 mi North 5.8 mph - N/A Thunderstorm Overcast
7:53 AM 62.6 °F 60.8 °F 94% 30.10 in 1.8 mi NNW 5.8 mph - N/A Rain , Thunderstorm Thunderstorms and Rain
8:04 AM 63.0 °F 59.0 °F 87% 30.09 in 2.5 mi North 5.8 mph - 0.01 in Rain , Thunderstorm Light Rain
8:12 AM 63.0 °F 60.1 °F 90% 30.09 in 3.0 mi NNE 4.6 mph - 0.02 in Rain , Thunderstorm Light Rain
8:18 AM 63.0 °F 59.0 °F 87% 30.09 in 3.0 mi North 4.6 mph - 0.02 in Rain Light Rain
8:53 AM 62.1 °F 59.0 °F 90% 30.07 in 2.5 mi North 4.6 mph - 0.07 in Rain Rain
9:04 AM 63.0 °F 59.0 °F 87% 30.08 in 5.0 mi North 4.6 mph - 0.01 in Rain Light Rain
9:23 AM 63.0 °F 59.0 °F 87% 30.07 in 2.5 mi NNE 4.6 mph - 0.07 in Rain Rain
9:33 AM 63.0 °F 59.0 °F 87% 30.06 in 3.0 mi NE 4.6 mph - 0.10 in Rain Rain
9:53 AM 63.0 °F 59.0 °F 87% 30.05 in 5.0 mi NE 4.6 mph - 0.14 in Rain Light Rain
10:11 AM 64.0 °F 60.1 °F 87% 30.05 in 5.0 mi NNW 6.9 mph - 0.02 in Rain Light Rain
11:22 AM 63.0 °F 59.0 °F 87% 30.04 in 3.0 mi North 5.8 mph - 0.10 in Rain Rain
11:53 AM 63.0 °F 60.1 °F 90% 30.03 in 5.0 mi NE 4.6 mph - 0.16 in Rain Light Rain
12:53 PM 69.1 °F 64.0 °F 84% 30.00 in 10.0 mi Calm Calm - 0.03 in   Overcast
1:00 PM 70.0 °F 64.0 °F 81% 30.01 in 10.0 mi NW 3.5 mph - N/A   Mostly Cloudy
1:27 PM 70.0 °F 64.0 °F 81% 30.00 in 10.0 mi WSW 5.8 mph - N/A   Overcast
1:53 PM 70.0 °F 64.0 °F 81% 29.98 in 10.0 mi WNW 8.1 mph - N/A   Overcast
2:27 PM 68.0 °F 63.0 °F 84% 29.96 in 10.0 mi North 3.5 mph - N/A   Overcast
2:35 PM 68.0 °F 63.0 °F 84% 29.97 in 6.0 mi NNW 5.8 mph - 0.01 in Rain Light Rain
2:53 PM 68.0 °F 64.0 °F 87% 29.93 in 3.0 mi NNW 5.8 mph - 0.04 in Rain Rain
3:12 PM 68.0 °F 64.0 °F 87% 29.94 in 10.0 mi NNW 6.9 mph - 0.01 in Rain Light Rain
3:40 PM 70.0 °F 64.0 °F 81% 29.92 in 10.0 mi NNE 4.6 mph - 0.02 in   Overcast
3:53 PM 70.0 °F 64.9 °F 84% 29.91 in 10.0 mi NNE 5.8 mph - 0.02 in   Overcast
4:17 PM 71.1 °F 66.0 °F 84% 29.90 in 9.0 mi NNE 3.5 mph - N/A   Overcast
4:36 PM 71.1 °F 66.0 °F 84% 29.90 in 10.0 mi WNW 6.9 mph - N/A   Overcast
4:49 PM 69.8 °F 66.2 °F 88% 29.89 in 2.5 mi Calm Calm - 0.03 in Rain Rain
4:53 PM 71.6 °F 66.2 °F 83% 29.88 in 2.5 mi Calm Calm - N/A Rain Rain
5:01 PM 71.1 °F 66.0 °F 84% 29.88 in 2.5 mi East 5.8 mph - 0.01 in Rain Light Rain
5:29 PM 70.0 °F 66.0 °F 87% 29.90 in 6.0 mi Calm Calm - 0.02 in Rain Light Rain
5:53 PM 72.0 °F 66.9 °F 84% 29.89 in 6.0 mi SSE 9.2 mph - 0.04 in Rain Light Rain
6:53 PM 70.0 °F 66.0 °F 87% 29.87 in 3.0 mi South 4.6 mph - 0.14 in Rain Rain
7:00 PM 70.0 °F 66.0 °F 87% 29.87 in 2.5 mi SE 5.8 mph - 0.03 in Rain Rain
7:17 PM 69.1 °F 66.0 °F 90% 29.86 in 5.0 mi SE 6.9 mph - 0.07 in Rain Light Rain
7:53 PM 69.1 °F 64.0 °F 84% 29.85 in 4.0 mi South 11.5 mph - 0.12 in Rain Rain
8:53 PM 69.1 °F 64.0 °F 84% 29.85 in 10.0 mi South 6.9 mph - 0.06 in Rain Light Rain
9:53 PM 68.0 °F 62.1 °F 81% 29.85 in 5.0 mi South 9.2 mph 20.7 mph 0.14 in Rain Light Rain
10:45 PM 66.9 °F 62.1 °F 84% 29.86 in 10.0 mi SSE 5.8 mph - 0.01 in Rain Light Rain
10:53 PM 66.9 °F 62.1 °F 84% 29.86 in 10.0 mi SSE 6.9 mph - 0.01 in Rain Light Rain
11:15 PM 66.9 °F 62.1 °F 84% 29.86 in 10.0 mi SSE 5.8 mph - 0.01 in Rain Light Rain
11:41 PM 66.9 °F 63.0 °F 87% 29.86 in 7.0 mi South 8.1 mph - 0.03 in Rain Light Rain
11:47 PM 66.2 °F 62.6 °F 88% 29.86 in 7.0 mi SSE 8.1 mph - 0.03 in Rain Light Rain
11:53 PM 66.9 °F 63.0 °F 87% 29.85 in 7.0 mi South 4.6 mph - 0.04 in Rain Light Rain